Regional Weather Roundup
Issued by NWS

Home | Current Version | Previous Version | Text Only | Print | Product List | Glossary On
Versions: 1 2 3 4 5 6 7 8 9 10 11 12 13 14 15 16 17 18 19 20 21 22 23 24 25 26 27
000
ASUS45 KBOI 230910
RWRID

IDAHO REGIONAL WEATHER ROUNDUP
NATIONAL WEATHER SERVICE BOISE ID
300 AM MDT THU MAR 23 2017

NOTE: "FAIR" INDICATES FEW OR NO CLOUDS BELOW 12000 FEET
WITH NO SIGNIFICANT WEATHER AND/OR OBSTRUCTIONS TO VISIBILITY

IDZ012-014-231000-
SOUTHWEST IDAHO


CITY           SKY/WX    TMP DP  RH WIND       PRES   REMARKS
BOISE          CLEAR     41  35  79 W12       29.92R
CALDWELL       CLEAR     42  35  76 W15       29.95R
MOUNTAIN HOME  PTCLDY    42  41  95 NW15      29.88S
$$

IDZ016-017-231000-
SOUTHCENTRAL IDAHO


CITY           SKY/WX    TMP DP  RH WIND       PRES   REMARKS
BURLEY         CLOUDY    42  35  76 W12       29.78F
JEROME         CLOUDY    40  38  93 SW8       29.81F WCI  34
TWIN FALLS     CLOUDY    40  35  83 W15       29.82F WCI  32
$$

IDZ019>023-231000-
SOUTHEAST IDAHO


CITY           SKY/WX    TMP DP  RH WIND       PRES   REMARKS
IDAHO FALLS    CLOUDY    40  36  86 SW5       29.81S
POCATELLO      CLOUDY    41  36  82 SW8       29.80F
REXBURG        CLOUDY    39  36  89 CALM      29.80F
$$

IDZ006-010-011-018-031-032-231000-
CENTRAL IDAHO MOUNTAINS


CITY           SKY/WX    TMP DP  RH WIND       PRES   REMARKS
MCCALL         PTCLDY    35  26  69 NW7       29.91F WCI  29
HAILEY         MOCLDY    36  28  75 NW10      29.82F WCI  28
STANLEY          N/A     25  22  88 CALM      29.89F
SALMON         PTCLDY    39  28  65 CALM      29.86S
CHALLIS        MOCLDY    38  25  59 NW8       29.84F WCI  32
$$

IDZ002-004-006-007-026-231000-
NORTHERN IDAHO


CITY           SKY/WX    TMP DP  RH WIND       PRES   REMARKS
LEWISTON       FOG       37  36  96 S3        30.01S VSB 1
LOWELL           N/A     41  39  93 CALM      30.04S
COEUR D`ALENE  CLOUDY    42  37  82 S12       29.96R
MULLAN PASS    CLOUDY    28  28 100 VRB7G17   29.89S WCI  21
$$




USA.gov is the U.S. government's official web portal to all federal, state and local government web resources and services.